Retour au catalogue

COSMOS 2597

ActifMilitairePO
NORAD 66647·PAYLOAD·🇷🇺 Russia

Lancé Nov 25, 2025 depuis Plesetsk Cosmodrome

Loading…

Prochains Passages (prochaines 24 heures)

TLE

FraisSource: Space-Track

Époque: Sep 14, 2026, 14:10 UTC

1 66647U 25273A   26257.59090078  .00000025  00000-0  10731-3 0  9990
2 66647  82.4965 114.9373 0012602  25.7781 334.3925 12.42901578 36405

Suivez COSMOS 2597 en temps réel avec AllMySat

Download on the App Store